Time,TemperatureF,DewpointF,PressureIn,WindDirection,WindDirectionDegrees,WindSpeedMPH,WindSpeedGustMPH,Humidity,HourlyPrecipIn,Conditions,Clouds,dailyrainin,SolarRadiationWatts/m^2,SoftwareType,DateUTC
2013-04-13 00:00:00,72.3,67.3,29.85,South,179,0.0,0.0,84,0.00,,,0.00,0.0,meteohub,2013-04-13 04:00:00,
2013-04-13 00:01:00,72.3,67.3,29.85,South,179,0.0,0.0,84,0.00,,,0.00,0.0,meteohub,2013-04-13 04:01:00,
2013-04-13 00:06:00,72.3,67.3,29.85,South,179,0.0,1.0,84,0.00,,,0.00,0.0,meteohub,2013-04-13 04:06:00,
2013-04-13 00:11:00,72.3,67.6,29.85,South,180,0.0,1.0,85,0.00,,,0.00,0.0,meteohub,2013-04-13 04:11:00,
2013-04-13 00:17:00,72.3,67.6,29.85,South,180,0.0,2.0,85,0.00,,,0.00,0.0,meteohub,2013-04-13 04:17:00,
2013-04-13 00:22:00,72.3,67.6,29.85,South,179,0.0,2.0,85,0.00,,,0.00,0.0,meteohub,2013-04-13 04:22:00,
2013-04-13 00:27:00,72.3,67.6,29.85,South,180,0.0,2.0,85,0.00,,,0.00,0.0,meteohub,2013-04-13 04:27:00,
2013-04-13 00:32:00,72.3,67.6,29.85,South,180,0.0,1.0,85,0.00,,,0.00,0.0,meteohub,2013-04-13 04:32:00,
2013-04-13 00:37:00,72.1,67.5,29.85,South,180,0.0,0.0,85,0.00,,,0.00,0.0,meteohub,2013-04-13 04:37:00,
2013-04-13 00:42:00,72.1,67.5,29.85,South,179,0.0,3.0,85,0.00,,,0.00,0.0,meteohub,2013-04-13 04:42:00,
2013-04-13 00:47:00,72.1,67.5,29.85,South,180,0.0,3.0,85,0.00,,,0.00,0.0,meteohub,2013-04-13 04:47:00,
2013-04-13 00:52:00,72.0,67.3,29.85,South,180,0.0,3.0,85,0.00,,,0.00,0.0,meteohub,2013-04-13 04:52:00,
2013-04-13 00:57:00,72.0,67.3,29.85,South,180,0.0,2.0,85,0.00,,,0.00,0.0,meteohub,2013-04-13 04:57:00,
2013-04-13 01:02:00,71.8,67.1,29.85,SSW,207,2.0,2.0,85,0.00,,,0.00,0.0,meteohub,2013-04-13 05:02:00,
2013-04-13 01:07:00,71.4,66.7,29.85,West,269,0.0,4.0,85,0.00,,,0.00,0.0,meteohub,2013-04-13 05:07:00,
2013-04-13 01:12:00,71.2,66.2,29.85,WNW,292,0.0,4.0,84,0.00,,,0.00,0.0,meteohub,2013-04-13 05:12:00,
2013-04-13 01:17:00,71.1,66.0,29.85,SW,223,0.0,4.0,84,0.00,,,0.00,0.0,meteohub,2013-04-13 05:17:00,
2013-04-13 01:22:00,70.9,66.0,29.85,SW,222,0.0,-999.0,84,-99.99,,,0.00,0,weatherlink.com 1.10,2013-04-13 05:22:00,
2013-04-13 01:27:00,70.5,65.1,29.85,SW,223,0.0,1.0,83,0.00,,,0.00,0.0,meteohub,2013-04-13 05:27:00,
2013-04-13 01:32:00,70.3,64.9,29.86,West,278,2.0,2.0,83,0.00,,,0.00,0.0,meteohub,2013-04-13 05:32:00,
2013-04-13 01:37:00,70.1,65.0,29.86,WNW,282,0.0,-999.0,83,-99.99,,,0.00,0,weatherlink.com 1.10,2013-04-13 05:37:00,
2013-04-13 01:42:00,70.0,64.2,29.86,WNW,282,1.0,6.0,82,0.00,,,0.00,0.0,meteohub,2013-04-13 05:42:00,
2013-04-13 01:47:00,69.6,63.9,29.86,WNW,282,3.0,6.0,82,0.00,,,0.00,0.0,meteohub,2013-04-13 05:47:00,
2013-04-13 01:52:00,69.4,63.3,29.86,WNW,291,0.0,4.0,81,0.00,,,0.00,0.0,meteohub,2013-04-13 05:52:00,
2013-04-13 01:57:00,69.1,63.0,29.86,West,263,0.0,3.0,81,0.00,,,0.00,0.0,meteohub,2013-04-13 05:57:00,
2013-04-13 02:02:00,69.1,62.6,29.85,WNW,294,1.0,5.0,80,0.00,,,0.00,0.0,meteohub,2013-04-13 06:02:00,
2013-04-13 02:07:00,68.7,62.2,29.85,WNW,287,2.0,5.0,80,0.00,,,0.00,0.0,meteohub,2013-04-13 06:07:00,
2013-04-13 02:12:00,68.5,61.7,29.85,WNW,287,1.0,6.0,79,0.00,,,0.00,0.0,meteohub,2013-04-13 06:12:00,
2013-04-13 02:17:00,68.5,61.7,29.86,WNW,288,2.0,6.0,79,0.00,,,0.00,0.0,meteohub,2013-04-13 06:17:00,
2013-04-13 02:22:00,68.4,61.5,29.85,WNW,286,0.0,6.0,79,0.00,,,0.00,0.0,meteohub,2013-04-13 06:22:00,
2013-04-13 02:27:00,68.4,61.2,29.85,WNW,286,0.0,4.0,78,0.00,,,0.00,0.0,meteohub,2013-04-13 06:27:00,
2013-04-13 02:32:00,68.0,60.8,29.85,West,278,4.0,4.0,78,0.00,,,0.00,0.0,meteohub,2013-04-13 06:32:00,
2013-04-13 02:37:00,67.6,60.3,29.85,WNW,298,11.0,11.0,77,0.00,,,0.00,0.0,meteohub,2013-04-13 06:37:00,
2013-04-13 02:42:00,67.5,59.5,29.85,NW,313,2.0,11.0,76,0.00,,,0.00,0.0,meteohub,2013-04-13 06:42:00,
2013-04-13 02:49:00,67.5,59.5,29.85,WNW,291,0.0,11.0,76,0.00,,,0.00,0.0,meteohub,2013-04-13 06:49:00,
2013-04-13 02:54:00,67.3,59.0,29.86,WNW,292,0.0,11.0,75,0.00,,,0.00,0.0,meteohub,2013-04-13 06:54:00,
2013-04-13 02:58:00,67.1,59.4,29.86,WNW,293,0.0,5.0,76,0.00,,,0.00,0.0,meteohub,2013-04-13 06:58:00,
2013-04-13 03:04:00,66.9,58.8,29.86,WNW,295,0.0,5.0,75,0.00,,,0.00,0.0,meteohub,2013-04-13 07:04:00,
2013-04-13 03:09:00,66.7,58.6,29.86,West,279,0.0,5.0,75,0.00,,,0.00,0.0,meteohub,2013-04-13 07:09:00,
2013-04-13 03:14:00,66.6,58.1,29.86,WNW,298,0.0,5.0,74,0.00,,,0.00,0.0,meteohub,2013-04-13 07:14:00,
2013-04-13 03:19:00,66.2,57.7,29.86,WNW,291,0.0,5.0,74,0.00,,,0.00,0.0,meteohub,2013-04-13 07:19:00,
2013-04-13 03:24:00,66.0,57.6,29.86,WNW,292,0.0,4.0,74,0.00,,,0.00,0.0,meteohub,2013-04-13 07:24:00,
2013-04-13 03:29:00,65.8,57.4,29.86,WNW,292,0.0,4.0,74,0.00,,,0.00,0.0,meteohub,2013-04-13 07:29:00,
2013-04-13 03:34:00,65.7,57.2,29.86,WNW,292,0.0,4.0,74,0.00,,,0.00,0.0,meteohub,2013-04-13 07:34:00,
2013-04-13 03:39:00,65.5,57.0,29.86,WNW,292,0.0,4.0,74,0.00,,,0.00,0.0,meteohub,2013-04-13 07:39:00,
2013-04-13 03:44:00,65.1,56.7,29.87,WNW,292,0.0,2.0,74,0.00,,,0.00,0.0,meteohub,2013-04-13 07:44:00,
2013-04-13 03:49:00,64.6,56.1,29.87,WNW,292,0.0,0.0,74,0.00,,,0.00,0.0,meteohub,2013-04-13 07:49:00,
2013-04-13 03:54:00,64.0,55.6,29.87,WNW,292,0.0,0.0,74,0.00,,,0.00,0.0,meteohub,2013-04-13 07:54:00,
2013-04-13 03:59:00,63.7,55.6,29.87,WNW,291,0.0,0.0,75,0.00,,,0.00,0.0,meteohub,2013-04-13 07:59:00,
2013-04-13 04:04:00,63.3,55.2,29.87,WNW,291,0.0,0.0,75,0.00,,,0.00,0.0,meteohub,2013-04-13 08:04:00,
2013-04-13 04:09:00,63.3,55.2,29.87,WNW,292,0.0,0.0,75,0.00,,,0.00,0.0,meteohub,2013-04-13 08:09:00,
2013-04-13 04:14:00,63.1,55.4,29.87,WNW,292,0.0,0.0,76,0.00,,,0.00,0.0,meteohub,2013-04-13 08:14:00,
2013-04-13 04:20:00,63.0,55.2,29.87,WNW,292,2.0,0.0,76,0.00,,,0.00,0.0,meteohub,2013-04-13 08:20:00,
2013-04-13 04:25:00,62.8,55.0,29.87,WNW,292,0.0,0.0,76,0.00,,,0.00,0.0,meteohub,2013-04-13 08:25:00,
2013-04-13 04:30:00,62.4,54.7,29.87,WNW,292,3.0,3.0,76,0.00,,,0.00,0.0,meteohub,2013-04-13 08:30:00,
2013-04-13 04:35:00,62.2,54.5,29.87,WNW,291,0.0,2.0,76,0.00,,,0.00,0.0,meteohub,2013-04-13 08:35:00,
2013-04-13 04:41:00,62.2,54.5,29.87,WNW,282,4.0,4.0,76,0.00,,,0.00,0.0,meteohub,2013-04-13 08:41:00,
2013-04-13 04:46:00,62.1,54.3,29.87,WNW,283,0.0,4.0,76,0.00,,,0.00,0.0,meteohub,2013-04-13 08:46:00,
2013-04-13 04:51:00,62.1,54.0,29.87,NW,313,0.0,4.0,75,0.00,,,0.00,0.0,meteohub,2013-04-13 08:51:00,
2013-04-13 04:56:00,62.1,54.0,29.87,WNW,295,2.0,7.0,75,0.00,,,0.00,0.0,meteohub,2013-04-13 08:56:00,
2013-04-13 05:01:00,61.9,53.4,29.87,NW,310,0.0,7.0,74,0.00,,,0.00,0.0,meteohub,2013-04-13 09:01:00,
2013-04-13 05:07:00,61.9,53.4,29.87,NNW,330,0.0,7.0,74,0.00,,,0.00,0.0,meteohub,2013-04-13 09:07:00,
2013-04-13 05:12:00,61.7,53.2,29.88,NW,304,1.0,5.0,74,0.00,,,0.00,0.0,meteohub,2013-04-13 09:12:00,
2013-04-13 05:17:00,61.5,53.2,29.88,WNW,298,0.0,4.0,74,0.00,,,0.00,0.0,meteohub,2013-04-13 09:17:00,
2013-04-13 05:22:00,61.3,53.1,29.88,NW,309,0.0,3.0,74,0.00,,,0.00,0.0,meteohub,2013-04-13 09:22:00,
2013-04-13 05:27:00,61.2,52.9,29.88,WNW,295,0.0,4.0,74,0.00,,,0.00,0.0,meteohub,2013-04-13 09:27:00,
2013-04-13 05:32:00,61.0,52.7,29.89,WNW,298,0.0,4.0,74,0.00,,,0.00,0.0,meteohub,2013-04-13 09:32:00,
2013-04-13 05:37:00,61.0,52.7,29.88,WNW,298,0.0,4.0,74,0.00,,,0.00,0.0,meteohub,2013-04-13 09:37:00,
2013-04-13 05:42:00,60.6,52.3,29.88,WNW,299,1.0,3.0,74,0.00,,,0.00,0.0,meteohub,2013-04-13 09:42:00,
2013-04-13 05:48:00,60.4,52.2,29.88,WNW,288,2.0,3.0,74,0.00,,,0.00,0.0,meteohub,2013-04-13 09:48:00,
2013-04-13 05:53:00,60.3,52.0,29.89,WNW,288,0.0,5.0,74,0.00,,,0.00,0.0,meteohub,2013-04-13 09:53:00,
2013-04-13 05:58:00,60.1,51.8,29.89,WNW,288,0.0,5.0,74,0.00,,,0.00,0.0,meteohub,2013-04-13 09:58:00,
2013-04-13 06:03:00,59.9,51.6,29.88,WNW,288,0.0,5.0,74,0.00,,,0.00,0.0,meteohub,2013-04-13 10:03:00,
2013-04-13 06:08:00,59.7,51.4,29.89,WNW,287,1.0,2.0,74,0.00,,,0.00,0.0,meteohub,2013-04-13 10:08:00,
2013-04-13 06:13:00,59.5,50.9,29.89,WNW,288,2.0,2.0,73,0.00,,,0.00,0.0,meteohub,2013-04-13 10:13:00,
2013-04-13 06:18:00,59.5,50.9,29.90,WNW,288,0.0,3.0,73,0.00,,,0.00,0.0,meteohub,2013-04-13 10:18:00,
2013-04-13 06:23:00,59.4,50.7,29.90,WNW,288,1.0,3.0,73,0.00,,,0.00,0.0,meteohub,2013-04-13 10:23:00,
2013-04-13 06:29:00,59.0,50.4,29.90,WNW,288,0.0,3.0,73,0.00,,,0.00,0.0,meteohub,2013-04-13 10:29:00,
2013-04-13 06:34:00,59.0,50.7,29.90,WNW,288,0.0,2.0,74,0.00,,,0.00,0.0,meteohub,2013-04-13 10:34:00,
2013-04-13 06:39:00,58.6,50.4,29.90,WNW,288,0.0,2.0,74,0.00,,,0.00,0.0,meteohub,2013-04-13 10:39:00,
2013-04-13 06:44:00,58.5,50.2,29.91,WNW,288,0.0,1.0,74,0.00,,,0.00,0.0,meteohub,2013-04-13 10:44:00,
2013-04-13 06:50:00,58.3,50.0,29.91,WNW,288,0.0,1.0,74,0.00,,,0.00,0.0,meteohub,2013-04-13 10:50:00,
2013-04-13 06:55:00,58.1,49.8,29.91,WNW,288,0.0,2.0,74,0.00,,,0.00,0.0,meteohub,2013-04-13 10:55:00,
2013-04-13 07:00:00,57.9,49.6,29.91,NNW,335,1.0,3.0,74,0.00,,,0.00,0.0,meteohub,2013-04-13 11:00:00,
2013-04-13 07:05:00,57.9,49.6,29.91,WNW,294,0.0,4.0,74,0.00,,,0.00,5.0,meteohub,2013-04-13 11:05:00,
2013-04-13 07:10:00,57.9,49.3,29.91,West,268,0.0,4.0,73,0.00,,,0.00,11.0,meteohub,2013-04-13 11:10:00,
2013-04-13 07:15:00,57.9,49.3,29.91,WNW,296,0.0,6.0,73,0.00,,,0.00,19.0,meteohub,2013-04-13 11:15:00,
2013-04-13 07:21:00,58.1,49.5,29.92,WNW,301,1.0,6.0,73,0.00,,,0.00,26.0,meteohub,2013-04-13 11:21:00,
2013-04-13 07:26:00,58.1,49.1,29.92,West,279,0.0,6.0,72,0.00,,,0.00,37.0,meteohub,2013-04-13 11:26:00,
2013-04-13 07:31:00,58.3,49.3,29.93,West,281,0.0,4.0,72,0.00,,,0.00,40.0,meteohub,2013-04-13 11:31:00,
2013-04-13 07:36:00,58.3,49.3,29.93,West,281,0.0,4.0,72,0.00,,,0.00,47.0,meteohub,2013-04-13 11:36:00,
2013-04-13 07:41:00,58.3,49.3,29.93,West,281,0.0,3.0,72,0.00,,,0.00,62.0,meteohub,2013-04-13 11:41:00,
2013-04-13 07:47:00,58.3,49.3,29.93,West,280,0.0,3.0,72,0.00,,,0.00,74.0,meteohub,2013-04-13 11:47:00,
2013-04-13 07:52:00,58.4,49.0,29.93,West,281,0.0,-999.0,72,-99.99,,,0.00,83,weatherlink.com 1.10,2013-04-13 11:52:00,
2013-04-13 07:57:00,58.5,49.5,29.93,WNW,295,1.0,3.0,72,0.00,,,0.00,95.0,meteohub,2013-04-13 11:57:00,
2013-04-13 08:02:00,58.5,49.5,29.94,West,281,0.0,4.0,72,0.00,,,0.00,111.0,meteohub,2013-04-13 12:02:00,
2013-04-13 08:07:00,58.6,49.6,29.93,WNW,298,2.0,4.0,72,0.00,,,0.00,176.0,meteohub,2013-04-13 12:07:00,
2013-04-13 08:12:00,58.8,49.5,29.94,WNW,299,1.0,4.0,71,0.00,,,0.00,128.0,meteohub,2013-04-13 12:12:00,
2013-04-13 08:17:00,59.0,50.4,29.94,NW,315,1.0,6.0,73,0.00,,,0.00,132.0,meteohub,2013-04-13 12:17:00,
2013-04-13 08:23:00,59.0,49.6,29.94,West,280,0.0,6.0,71,0.00,,,0.00,153.0,meteohub,2013-04-13 12:23:00,
2013-04-13 08:28:00,59.0,49.3,29.94,NW,317,0.0,7.0,70,0.00,,,0.00,163.0,meteohub,2013-04-13 12:28:00,
2013-04-13 08:33:00,59.2,49.5,29.94,NW,319,1.0,7.0,70,0.00,,,0.00,144.0,meteohub,2013-04-13 12:33:00,
2013-04-13 08:38:00,59.5,49.8,29.94,WNW,298,0.0,7.0,70,0.00,,,0.00,185.0,meteohub,2013-04-13 12:38:00,
2013-04-13 08:43:00,59.5,49.8,29.94,West,281,0.0,5.0,70,0.00,,,0.00,209.0,meteohub,2013-04-13 12:43:00,
2013-04-13 08:48:00,59.9,50.2,29.95,WNW,292,0.0,4.0,70,0.00,,,0.00,246.0,meteohub,2013-04-13 12:48:00,
2013-04-13 08:53:00,60.3,50.0,29.94,NNW,344,2.0,5.0,69,0.00,,,0.00,297.0,meteohub,2013-04-13 12:53:00,
2013-04-13 08:58:00,60.6,50.4,29.95,West,267,1.0,5.0,69,0.00,,,0.00,297.0,meteohub,2013-04-13 12:58:00,
2013-04-13 09:03:00,61.0,50.4,29.95,WNW,301,0.0,7.0,68,0.00,,,0.00,302.0,meteohub,2013-04-13 13:03:00,
2013-04-13 09:08:00,61.3,50.7,29.95,NNW,327,1.0,7.0,68,0.00,,,0.00,323.0,meteohub,2013-04-13 13:08:00,
2013-04-13 09:14:00,61.5,50.5,29.95,NW,322,1.0,8.0,67,0.00,,,0.00,294.0,meteohub,2013-04-13 13:14:00,
2013-04-13 09:19:00,61.9,50.7,29.95,NNW,335,5.0,12.0,67,0.00,,,0.00,288.0,meteohub,2013-04-13 13:19:00,
2013-04-13 09:24:00,62.2,50.7,29.96,NW,314,4.0,12.0,66,0.00,,,0.00,323.0,meteohub,2013-04-13 13:24:00,
2013-04-13 09:30:00,62.4,50.9,29.96,West,280,3.0,10.0,66,0.00,,,0.00,446.0,meteohub,2013-04-13 13:30:00,
2013-04-13 09:35:00,63.0,51.4,29.96,WNW,288,5.0,11.0,66,0.00,,,0.00,443.0,meteohub,2013-04-13 13:35:00,
2013-04-13 09:40:00,63.3,51.4,29.96,NNW,335,3.0,9.0,65,0.00,,,0.00,304.0,meteohub,2013-04-13 13:40:00,
2013-04-13 09:45:00,63.5,51.4,29.96,WNW,292,2.0,9.0,65,0.00,,,0.00,380.0,meteohub,2013-04-13 13:45:00,
2013-04-13 09:50:00,63.9,51.4,29.96,NE,36,9.0,9.0,64,0.00,,,0.00,387.0,meteohub,2013-04-13 13:50:00,
2013-04-13 09:55:00,64.0,51.6,29.96,NNW,334,3.0,9.0,64,0.00,,,0.00,431.0,meteohub,2013-04-13 13:55:00,
2013-04-13 10:00:00,64.2,51.8,29.96,NNW,345,0.0,12.0,64,0.00,,,0.00,468.0,meteohub,2013-04-13 14:00:00,
2013-04-13 10:05:00,64.8,52.3,29.96,NE,46,0.0,12.0,64,0.00,,,0.00,606.0,meteohub,2013-04-13 14:05:00,
2013-04-13 10:10:00,65.3,52.3,29.97,NW,319,2.0,12.0,63,0.00,,,0.00,673.0,meteohub,2013-04-13 14:10:00,
2013-04-13 10:15:00,65.5,52.2,29.97,ESE,107,3.0,14.0,62,0.00,,,0.00,462.0,meteohub,2013-04-13 14:15:00,
2013-04-13 10:20:00,65.5,52.2,29.97,NNW,327,0.0,14.0,62,0.00,,,0.00,554.0,meteohub,2013-04-13 14:20:00,
2013-04-13 10:25:00,65.8,52.0,29.97,WNW,292,2.0,14.0,61,0.00,,,0.00,606.0,meteohub,2013-04-13 14:25:00,
2013-04-13 10:31:00,66.0,52.2,29.97,West,274,4.0,8.0,61,0.00,,,0.00,548.0,meteohub,2013-04-13 14:31:00,
2013-04-13 10:36:00,66.4,52.5,29.97,West,271,0.0,7.0,61,0.00,,,0.00,512.0,meteohub,2013-04-13 14:36:00,
2013-04-13 10:41:00,66.7,52.9,29.97,WNW,296,6.0,7.0,61,0.00,,,0.00,566.0,meteohub,2013-04-13 14:41:00,
2013-04-13 10:46:00,66.7,52.3,29.97,NW,321,1.0,9.0,60,0.00,,,0.00,578.0,meteohub,2013-04-13 14:46:00,
2013-04-13 10:51:00,66.6,51.8,29.97,NW,311,0.0,12.0,59,0.00,,,0.00,571.0,meteohub,2013-04-13 14:51:00,
2013-04-13 10:56:00,66.7,52.0,29.97,NW,311,1.0,12.0,59,0.00,,,0.00,603.0,meteohub,2013-04-13 14:56:00,
2013-04-13 11:02:00,67.3,52.9,29.97,WNW,282,0.0,12.0,60,0.00,,,0.00,598.0,meteohub,2013-04-13 15:02:00,
2013-04-13 11:07:00,67.5,52.7,29.98,West,264,0.0,7.0,59,0.00,,,0.00,737.0,meteohub,2013-04-13 15:07:00,
2013-04-13 11:15:00,68.2,53.2,29.98,West,261,0.0,11.0,59,0.00,,,0.00,708.0,meteohub,2013-04-13 15:15:00,
2013-04-13 11:22:00,68.5,53.2,29.98,NNW,338,0.0,8.0,58,0.00,,,0.00,710.0,meteohub,2013-04-13 15:22:00,
2013-04-13 11:27:00,68.7,53.4,29.98,WNW,287,2.0,8.0,58,0.00,,,0.00,800.0,meteohub,2013-04-13 15:27:00,
2013-04-13 11:32:00,68.7,52.9,29.98,WNW,298,4.0,8.0,57,0.00,,,0.00,907.0,meteohub,2013-04-13 15:32:00,
2013-04-13 11:37:00,68.9,52.5,29.98,North,350,1.0,8.0,56,0.00,,,0.00,891.0,meteohub,2013-04-13 15:37:00,
2013-04-13 11:42:00,69.3,53.4,29.98,NNE,13,1.0,8.0,57,0.00,,,0.00,742.0,meteohub,2013-04-13 15:42:00,
2013-04-13 11:48:00,69.6,53.2,29.98,NW,306,2.0,8.0,56,0.00,,,0.00,889.0,meteohub,2013-04-13 15:48:00,
2013-04-13 11:53:00,70.0,53.6,29.98,WNW,286,3.0,8.0,56,0.00,,,0.00,705.0,meteohub,2013-04-13 15:53:00,
2013-04-13 11:58:00,70.3,53.4,29.98,WNW,291,3.0,6.0,55,0.00,,,0.00,849.0,meteohub,2013-04-13 15:58:00,
2013-04-13 12:03:00,70.5,53.6,29.98,WSW,244,0.0,5.0,55,0.00,,,0.00,888.0,meteohub,2013-04-13 16:03:00,
2013-04-13 12:09:00,70.9,54.0,29.98,WNW,291,3.0,8.0,55,0.00,,,0.00,803.0,meteohub,2013-04-13 16:09:00,
2013-04-13 12:14:00,70.9,54.0,29.97,NNE,13,0.0,8.0,55,0.00,,,0.00,851.0,meteohub,2013-04-13 16:14:00,
2013-04-13 12:19:00,70.9,53.4,29.97,WNW,298,3.0,7.0,54,0.00,,,0.00,914.0,meteohub,2013-04-13 16:19:00,
2013-04-13 12:24:00,71.2,53.8,29.97,WNW,294,2.0,7.0,54,0.00,,,0.00,970.0,meteohub,2013-04-13 16:24:00,
2013-04-13 12:29:00,71.6,54.1,29.97,West,265,0.0,7.0,54,0.00,,,0.00,949.0,meteohub,2013-04-13 16:29:00,
2013-04-13 12:34:00,72.0,54.3,29.97,West,279,0.0,7.0,54,0.00,,,0.00,891.0,meteohub,2013-04-13 16:34:00,
2013-04-13 12:39:00,72.3,54.1,29.97,ESE,115,1.0,7.0,53,0.00,,,0.00,967.0,meteohub,2013-04-13 16:39:00,
2013-04-13 12:45:00,72.7,54.5,29.97,WNW,299,3.0,7.0,53,0.00,,,0.00,904.0,meteohub,2013-04-13 16:45:00,
2013-04-13 12:50:00,72.7,54.5,29.97,West,279,5.0,5.0,53,0.00,,,0.00,1007.0,meteohub,2013-04-13 16:50:00,
2013-04-13 12:55:00,72.7,54.5,29.97,NW,308,0.0,9.0,53,0.00,,,0.00,1048.0,meteohub,2013-04-13 16:55:00,
2013-04-13 13:01:00,73.0,54.9,29.97,WNW,286,5.0,9.0,53,0.00,,,0.00,954.0,meteohub,2013-04-13 17:01:00,
2013-04-13 13:06:00,73.2,54.5,29.96,NW,304,1.0,9.0,52,0.00,,,0.00,1027.0,meteohub,2013-04-13 17:06:00,
2013-04-13 13:11:00,73.2,54.5,29.96,WNW,286,5.0,7.0,52,0.00,,,0.00,916.0,meteohub,2013-04-13 17:11:00,
2013-04-13 13:16:00,73.6,54.9,29.96,NNW,336,2.0,10.0,52,0.00,,,0.00,990.0,meteohub,2013-04-13 17:16:00,
2013-04-13 13:21:00,73.6,54.9,29.96,WNW,296,0.0,10.0,52,0.00,,,0.00,995.0,meteohub,2013-04-13 17:21:00,
2013-04-13 13:26:00,74.1,54.9,29.96,WNW,290,6.0,6.0,51,0.00,,,0.00,1014.0,meteohub,2013-04-13 17:26:00,
2013-04-13 13:32:00,74.7,55.4,29.96,WNW,288,3.0,8.0,51,0.00,,,0.00,991.0,meteohub,2013-04-13 17:32:00,
2013-04-13 13:37:00,74.8,55.6,29.96,WNW,299,1.0,8.0,51,0.00,,,0.00,1039.0,meteohub,2013-04-13 17:37:00,
2013-04-13 13:42:00,75.0,55.0,29.95,ENE,57,0.0,8.0,50,0.00,,,0.00,1032.0,meteohub,2013-04-13 17:42:00,
2013-04-13 13:47:00,75.7,56.3,29.95,WSW,239,5.0,7.0,51,0.00,,,0.00,1065.0,meteohub,2013-04-13 17:47:00,
2013-04-13 13:52:00,75.9,55.9,29.95,SSW,192,1.0,6.0,50,0.00,,,0.00,967.0,meteohub,2013-04-13 17:52:00,
2013-04-13 13:57:00,76.1,55.6,29.95,WNW,294,2.0,6.0,49,0.00,,,0.00,997.0,meteohub,2013-04-13 17:57:00,
2013-04-13 14:02:00,76.5,55.9,29.95,SSW,192,3.0,6.0,49,0.00,,,0.00,954.0,meteohub,2013-04-13 18:02:00,
2013-04-13 14:07:00,76.6,56.1,29.95,NW,309,0.0,6.0,49,0.00,,,0.00,986.0,meteohub,2013-04-13 18:07:00,
2013-04-13 14:12:00,76.5,55.4,29.95,West,259,1.0,6.0,48,0.00,,,0.00,1063.0,meteohub,2013-04-13 18:12:00,
2013-04-13 14:17:00,76.6,55.4,29.95,WNW,290,0.0,6.0,48,0.00,,,0.00,1004.0,meteohub,2013-04-13 18:17:00,
2013-04-13 14:22:00,76.6,54.9,29.94,SSW,211,1.0,6.0,47,0.00,,,0.00,895.0,meteohub,2013-04-13 18:22:00,
2013-04-13 14:27:00,76.8,55.0,29.94,SW,230,1.0,6.0,47,0.00,,,0.00,904.0,meteohub,2013-04-13 18:27:00,
2013-04-13 14:28:00,76.8,54.5,29.94,SW,219,0.0,6.0,46,0.00,,,0.00,786.0,meteohub,2013-04-13 18:28:00,
2013-04-13 14:33:00,77.0,54.7,29.94,WNW,291,1.0,6.0,46,0.00,,,0.00,763.0,meteohub,2013-04-13 18:33:00,
2013-04-13 14:38:00,76.8,54.5,29.93,SW,227,0.0,7.0,46,0.00,,,0.00,918.0,meteohub,2013-04-13 18:38:00,
2013-04-13 14:43:00,76.6,53.8,29.93,NE,36,2.0,7.0,45,0.00,,,0.00,940.0,meteohub,2013-04-13 18:43:00,
2013-04-13 14:48:00,76.6,53.8,29.93,WNW,288,2.0,7.0,45,0.00,,,0.00,972.0,meteohub,2013-04-13 18:48:00,
2013-04-13 14:53:00,77.2,54.1,29.92,WNW,298,3.0,5.0,45,0.00,,,0.00,958.0,meteohub,2013-04-13 18:53:00,
2013-04-13 14:58:00,77.2,54.1,29.92,WSW,240,0.0,6.0,45,0.00,,,0.00,944.0,meteohub,2013-04-13 18:58:00,
2013-04-13 15:03:00,77.2,54.1,29.92,NNW,338,2.0,7.0,45,0.00,,,0.00,932.0,meteohub,2013-04-13 19:03:00,
2013-04-13 15:08:00,77.2,53.6,29.92,NNE,15,0.0,7.0,44,0.00,,,0.00,921.0,meteohub,2013-04-13 19:08:00,
2013-04-13 15:13:00,77.4,53.8,29.91,NNE,17,2.0,6.0,44,0.00,,,0.00,911.0,meteohub,2013-04-13 19:13:00,
2013-04-13 15:18:00,77.5,53.2,29.91,East,80,2.0,5.0,43,0.00,,,0.00,902.0,meteohub,2013-04-13 19:18:00,
2013-04-13 15:23:00,77.5,53.2,29.91,ESE,106,0.0,4.0,43,0.00,,,0.00,889.0,meteohub,2013-04-13 19:23:00,
2013-04-13 15:28:00,78.3,54.0,29.91,WNW,286,7.0,7.0,43,0.00,,,0.00,882.0,meteohub,2013-04-13 19:28:00,
2013-04-13 15:33:00,78.6,54.3,29.90,WNW,290,3.0,7.0,43,0.00,,,0.00,851.0,meteohub,2013-04-13 19:33:00,
2013-04-13 15:39:00,78.8,54.5,29.91,WSW,250,0.0,7.0,43,0.00,,,0.00,870.0,meteohub,2013-04-13 19:39:00,
2013-04-13 15:44:00,79.0,54.0,29.91,WNW,289,1.0,7.0,42,0.00,,,0.00,779.0,meteohub,2013-04-13 19:44:00,
2013-04-13 15:49:00,79.0,54.0,29.90,SW,215,0.0,7.0,42,0.00,,,0.00,714.0,meteohub,2013-04-13 19:49:00,
2013-04-13 15:54:00,79.3,54.3,29.90,South,183,0.0,7.0,42,0.00,,,0.00,749.0,meteohub,2013-04-13 19:54:00,
2013-04-13 15:59:00,79.5,54.5,29.90,East,84,1.0,7.0,42,0.00,,,0.00,824.0,meteohub,2013-04-13 19:59:00,
2013-04-13 16:04:00,79.0,53.2,29.89,NE,51,0.0,4.0,41,0.00,,,0.00,619.0,meteohub,2013-04-13 20:04:00,
2013-04-13 16:09:00,78.6,54.9,29.89,East,91,2.0,4.0,44,0.00,,,0.00,466.0,meteohub,2013-04-13 20:09:00,
2013-04-13 16:14:00,78.1,55.0,29.89,SE,142,0.0,5.0,45,0.00,,,0.00,635.0,meteohub,2013-04-13 20:14:00,
2013-04-13 16:19:00,77.5,55.0,29.89,NE,49,0.0,5.0,46,0.00,,,0.00,664.0,meteohub,2013-04-13 20:19:00,
2013-04-13 16:24:00,77.5,55.8,29.89,South,171,0.0,8.0,47,0.00,,,0.00,758.0,meteohub,2013-04-13 20:24:00,
2013-04-13 16:29:00,77.7,55.9,29.88,NE,49,4.0,8.0,47,0.00,,,0.00,679.0,meteohub,2013-04-13 20:29:00,
2013-04-13 16:34:00,77.5,55.8,29.88,South,186,0.0,8.0,47,0.00,,,0.00,714.0,meteohub,2013-04-13 20:34:00,
2013-04-13 16:39:00,77.5,55.8,29.88,SE,126,2.0,5.0,47,0.00,,,0.00,687.0,meteohub,2013-04-13 20:39:00,
2013-04-13 16:44:00,77.5,56.3,29.88,ESE,113,0.0,6.0,48,0.00,,,0.00,659.0,meteohub,2013-04-13 20:44:00,
2013-04-13 16:49:00,77.4,56.1,29.88,SSE,155,2.0,6.0,48,0.00,,,0.00,647.0,meteohub,2013-04-13 20:49:00,
2013-04-13 16:54:00,77.4,56.1,29.88,East,86,3.0,6.0,48,0.00,,,0.00,629.0,meteohub,2013-04-13 20:54:00,
2013-04-13 16:59:00,77.4,56.1,29.88,SSE,161,0.0,5.0,48,0.00,,,0.00,610.0,meteohub,2013-04-13 20:59:00,
2013-04-13 17:04:00,77.2,55.9,29.89,SSE,155,1.0,5.0,48,0.00,,,0.00,156.0,meteohub,2013-04-13 21:04:00,
2013-04-13 17:09:00,77.4,56.1,29.89,SE,142,0.0,4.0,48,0.00,,,0.00,243.0,meteohub,2013-04-13 21:09:00,
2013-04-13 17:14:00,77.2,56.5,29.89,ESE,109,0.0,4.0,49,0.00,,,0.00,220.0,meteohub,2013-04-13 21:14:00,
2013-04-13 17:19:00,76.8,56.3,29.89,East,100,0.0,5.0,49,0.00,,,0.00,446.0,meteohub,2013-04-13 21:19:00,
2013-04-13 17:24:00,76.5,56.5,29.89,NE,51,4.0,5.0,50,0.00,,,0.00,102.0,meteohub,2013-04-13 21:24:00,
2013-04-13 17:29:00,76.1,56.1,29.90,ESE,106,0.0,7.0,50,0.00,,,0.00,404.0,meteohub,2013-04-13 21:29:00,
2013-04-13 17:34:00,75.7,56.3,29.90,ESE,122,4.0,7.0,51,0.00,,,0.00,53.0,meteohub,2013-04-13 21:34:00,
2013-04-13 17:39:00,75.6,56.1,29.90,East,94,0.0,7.0,51,0.00,,,0.00,54.0,meteohub,2013-04-13 21:39:00,
2013-04-13 17:44:00,75.0,55.6,29.90,SE,135,1.0,5.0,51,0.00,,,0.00,84.0,meteohub,2013-04-13 21:44:00,
2013-04-13 17:49:00,74.8,55.6,29.90,ESE,117,3.0,7.0,51,0.00,,,0.00,162.0,meteohub,2013-04-13 21:49:00,
2013-04-13 17:54:00,74.5,55.8,29.90,ENE,61,2.0,7.0,52,0.00,,,0.00,40.0,meteohub,2013-04-13 21:54:00,
2013-04-13 17:59:00,74.1,55.4,29.90,ENE,78,2.0,5.0,52,0.00,,,0.00,39.0,meteohub,2013-04-13 21:59:00,
2013-04-13 18:04:00,73.8,55.6,29.90,NE,38,0.0,6.0,53,0.00,,,0.00,46.0,meteohub,2013-04-13 22:04:00,
2013-04-13 18:09:00,73.4,55.8,29.90,NE,38,0.0,6.0,54,0.00,,,0.00,47.0,meteohub,2013-04-13 22:09:00,
2013-04-13 18:14:00,73.0,55.4,29.90,NE,38,0.0,6.0,54,0.00,,,0.00,62.0,meteohub,2013-04-13 22:14:00,
2013-04-13 18:19:00,72.7,55.0,29.90,NE,38,0.0,4.0,54,0.00,,,0.00,93.0,meteohub,2013-04-13 22:19:00,
2013-04-13 18:24:00,72.3,55.2,29.91,NE,38,0.0,0.0,55,0.00,,,0.00,86.0,meteohub,2013-04-13 22:24:00,
2013-04-13 18:29:00,72.1,55.0,29.91,NE,38,0.0,0.0,55,0.00,,,0.00,67.0,meteohub,2013-04-13 22:29:00,
2013-04-13 18:34:00,71.8,55.2,29.90,NE,38,0.0,0.0,56,0.00,,,0.00,46.0,meteohub,2013-04-13 22:34:00,
2013-04-13 18:39:00,71.4,54.9,29.90,NE,38,0.0,0.0,56,0.00,,,0.00,54.0,meteohub,2013-04-13 22:39:00,
2013-04-13 18:44:00,70.9,54.3,29.90,NE,43,0.0,0.0,56,0.00,,,0.00,35.0,meteohub,2013-04-13 22:44:00,
2013-04-13 18:49:00,70.9,54.3,29.91,ENE,74,0.0,1.0,56,0.00,,,0.00,42.0,meteohub,2013-04-13 22:49:00,
2013-04-13 18:55:00,71.1,55.0,29.91,NNE,26,0.0,1.0,57,0.00,,,0.00,58.0,meteohub,2013-04-13 22:55:00,
2013-04-13 19:00:00,71.2,55.2,29.91,NNE,27,0.0,1.0,57,0.00,,,0.00,40.0,meteohub,2013-04-13 23:00:00,
2013-04-13 19:05:00,71.4,55.4,29.92,NNE,26,0.0,1.0,57,0.00,,,0.00,69.0,meteohub,2013-04-13 23:05:00,
2013-04-13 19:10:00,71.8,55.8,29.92,NNE,26,0.0,1.0,57,0.00,,,0.00,47.0,meteohub,2013-04-13 23:10:00,
2013-04-13 19:15:00,72.0,55.9,29.92,NNE,27,0.0,0.0,57,0.00,,,0.00,26.0,meteohub,2013-04-13 23:15:00,
2013-04-13 19:20:00,72.1,56.1,29.92,NNE,27,0.0,0.0,57,0.00,,,0.00,46.0,meteohub,2013-04-13 23:20:00,
2013-04-13 19:25:00,72.3,56.3,29.92,NNE,26,0.0,0.0,57,0.00,,,0.00,16.0,meteohub,2013-04-13 23:25:00,
2013-04-13 19:30:00,72.3,56.3,29.93,NNE,27,0.0,0.0,57,0.00,,,0.00,11.0,meteohub,2013-04-13 23:30:00,
2013-04-13 19:35:00,72.1,56.1,29.93,NNE,26,0.0,0.0,57,0.00,,,0.00,7.0,meteohub,2013-04-13 23:35:00,
2013-04-13 19:40:00,72.0,55.9,29.93,NNE,27,0.0,0.0,57,0.00,,,0.00,5.0,meteohub,2013-04-13 23:40:00,
2013-04-13 19:45:00,71.8,55.8,29.93,NNE,27,0.0,0.0,57,0.00,,,0.00,0.0,meteohub,2013-04-13 23:45:00,
2013-04-13 19:50:00,71.4,55.4,29.93,NNE,26,0.0,0.0,57,0.00,,,0.00,0.0,meteohub,2013-04-13 23:50:00,
2013-04-13 19:55:00,71.1,55.6,29.93,NNE,26,0.0,0.0,58,0.00,,,0.00,0.0,meteohub,2013-04-13 23:55:00,
2013-04-13 20:00:00,70.5,55.0,29.93,NNE,27,0.0,0.0,58,0.00,,,0.00,0.0,meteohub,2013-04-14 00:00:00,
2013-04-13 20:05:00,70.0,54.5,29.93,NNE,27,0.0,0.0,58,0.00,,,0.00,0.0,meteohub,2013-04-14 00:05:00,
2013-04-13 20:10:00,69.3,54.3,29.94,NNE,27,0.0,0.0,59,0.00,,,0.00,0.0,meteohub,2013-04-14 00:10:00,
2013-04-13 20:15:00,68.7,53.8,29.94,NNE,26,0.0,0.0,59,0.00,,,0.00,0.0,meteohub,2013-04-14 00:15:00,
2013-04-13 20:20:00,68.2,53.2,29.94,NNE,27,0.0,0.0,59,0.00,,,0.00,0.0,meteohub,2013-04-14 00:20:00,
2013-04-13 20:25:00,67.6,53.2,29.94,NNE,27,0.0,0.0,60,0.00,,,0.00,0.0,meteohub,2013-04-14 00:25:00,
2013-04-13 20:30:00,67.3,52.9,29.94,NNE,26,0.0,0.0,60,0.00,,,0.00,0.0,meteohub,2013-04-14 00:30:00,
2013-04-13 20:35:00,66.9,53.1,29.94,NNE,27,0.0,0.0,61,0.00,,,0.00,0.0,meteohub,2013-04-14 00:35:00,
2013-04-13 20:40:00,66.6,52.7,29.95,NNE,26,0.0,0.0,61,0.00,,,0.00,0.0,meteohub,2013-04-14 00:40:00,
2013-04-13 20:45:00,66.0,52.2,29.95,NNE,27,0.0,0.0,61,0.00,,,0.00,0.0,meteohub,2013-04-14 00:45:00,
2013-04-13 20:50:00,65.7,52.3,29.95,NNE,27,0.0,0.0,62,0.00,,,0.00,0.0,meteohub,2013-04-14 00:50:00,
2013-04-13 20:55:00,65.3,52.0,29.95,NNE,26,0.0,0.0,62,0.00,,,0.00,0.0,meteohub,2013-04-14 00:55:00,
2013-04-13 21:00:00,64.9,51.6,29.95,NNE,27,0.0,0.0,62,0.00,,,0.00,0.0,meteohub,2013-04-14 01:00:00,
2013-04-13 21:05:00,64.8,51.8,29.95,NNE,27,0.0,0.0,63,0.00,,,0.00,0.0,meteohub,2013-04-14 01:05:00,
2013-04-13 21:10:00,64.4,51.6,29.95,NNE,26,0.0,0.0,63,0.00,,,0.00,0.0,meteohub,2013-04-14 01:10:00,
2013-04-13 21:15:00,64.2,51.8,29.96,NNE,26,0.0,0.0,64,0.00,,,0.00,0.0,meteohub,2013-04-14 01:15:00,
2013-04-13 21:20:00,63.9,51.4,29.96,NNE,27,0.0,0.0,64,0.00,,,0.00,0.0,meteohub,2013-04-14 01:20:00,
2013-04-13 21:25:00,63.7,51.3,29.96,NNE,27,0.0,0.0,64,0.00,,,0.00,0.0,meteohub,2013-04-14 01:25:00,
2013-04-13 21:30:00,63.5,51.4,29.96,NNE,27,0.0,0.0,65,0.00,,,0.00,0.0,meteohub,2013-04-14 01:30:00,
2013-04-13 21:35:00,63.1,51.3,29.96,NNE,27,0.0,0.0,65,0.00,,,0.00,0.0,meteohub,2013-04-14 01:35:00,
2013-04-13 21:40:00,63.0,51.1,29.97,NNE,26,0.0,0.0,65,0.00,,,0.00,0.0,meteohub,2013-04-14 01:40:00,
2013-04-13 21:45:00,62.8,51.3,29.97,NNE,27,0.0,0.0,66,0.00,,,0.00,0.0,meteohub,2013-04-14 01:45:00,
2013-04-13 21:50:00,62.6,51.1,29.97,NNE,26,0.0,0.0,66,0.00,,,0.00,0.0,meteohub,2013-04-14 01:50:00,
2013-04-13 21:55:00,62.4,51.3,29.96,NNE,27,0.0,0.0,67,0.00,,,0.00,0.0,meteohub,2013-04-14 01:55:00,
2013-04-13 22:00:00,62.2,51.1,29.96,NNE,26,0.0,0.0,67,0.00,,,0.00,0.0,meteohub,2013-04-14 02:00:00,
2013-04-13 22:05:00,61.9,50.7,29.96,NNE,27,0.0,0.0,67,0.00,,,0.00,0.0,meteohub,2013-04-14 02:05:00,
2013-04-13 22:10:00,61.5,50.9,29.96,NNE,27,0.0,0.0,68,0.00,,,0.00,0.0,meteohub,2013-04-14 02:10:00,
2013-04-13 22:15:00,61.3,50.7,29.96,NNE,27,0.0,0.0,68,0.00,,,0.00,0.0,meteohub,2013-04-14 02:15:00,
2013-04-13 22:20:00,61.2,50.5,29.96,NNE,27,0.0,0.0,68,0.00,,,0.00,0.0,meteohub,2013-04-14 02:20:00,
2013-04-13 22:25:00,61.0,50.7,29.96,NNE,27,0.0,0.0,69,0.00,,,0.00,0.0,meteohub,2013-04-14 02:25:00,
2013-04-13 22:30:00,60.8,50.5,29.96,NNE,26,0.0,0.0,69,0.00,,,0.00,0.0,meteohub,2013-04-14 02:30:00,
2013-04-13 22:35:00,60.6,50.7,29.96,NNE,27,0.0,0.0,70,0.00,,,0.00,0.0,meteohub,2013-04-14 02:35:00,
2013-04-13 22:40:00,60.3,50.4,29.97,NNE,27,0.0,0.0,70,0.00,,,0.00,0.0,meteohub,2013-04-14 02:40:00,
2013-04-13 22:45:00,60.1,50.7,29.97,NNE,26,0.0,0.0,71,0.00,,,0.00,0.0,meteohub,2013-04-14 02:45:00,
2013-04-13 22:51:00,59.9,50.5,29.97,NNE,27,0.0,0.0,71,0.00,,,0.00,0.0,meteohub,2013-04-14 02:51:00,
2013-04-13 22:56:00,59.7,50.4,29.97,NNE,27,0.0,0.0,71,0.00,,,0.00,0.0,meteohub,2013-04-14 02:56:00,
2013-04-13 23:01:00,59.7,50.4,29.97,NNE,27,0.0,0.0,71,0.00,,,0.00,0.0,meteohub,2013-04-14 03:01:00,
2013-04-13 23:06:00,59.5,50.5,29.97,NNE,26,0.0,0.0,72,0.00,,,0.00,0.0,meteohub,2013-04-14 03:06:00,
2013-04-13 23:11:00,59.5,50.5,29.97,NNE,27,0.0,0.0,72,0.00,,,0.00,0.0,meteohub,2013-04-14 03:11:00,
2013-04-13 23:16:00,59.4,50.4,29.97,NNE,27,0.0,0.0,72,0.00,,,0.00,0.0,meteohub,2013-04-14 03:16:00,
2013-04-13 23:21:00,59.2,50.2,29.97,NNE,27,0.0,0.0,72,0.00,,,0.00,0.0,meteohub,2013-04-14 03:21:00,
2013-04-13 23:26:00,59.0,50.4,29.98,NNE,26,0.0,0.0,73,0.00,,,0.00,0.0,meteohub,2013-04-14 03:26:00,
2013-04-13 23:32:00,59.0,50.4,29.98,NNE,27,0.0,0.0,73,0.00,,,0.00,0.0,meteohub,2013-04-14 03:32:00,
2013-04-13 23:37:00,59.0,50.4,29.98,NNE,27,0.0,0.0,73,0.00,,,0.00,0.0,meteohub,2013-04-14 03:37:00,
2013-04-13 23:42:00,59.0,50.7,29.97,NNE,27,0.0,0.0,74,0.00,,,0.00,0.0,meteohub,2013-04-14 03:42:00,
2013-04-13 23:47:00,58.8,50.5,29.98,NNE,27,0.0,0.0,74,0.00,,,0.00,0.0,meteohub,2013-04-14 03:47:00,
2013-04-13 23:52:00,58.6,50.4,29.98,NNE,26,0.0,0.0,74,0.00,,,0.00,0.0,meteohub,2013-04-14 03:52:00,
2013-04-13 23:57:00,58.6,50.7,29.99,NNE,26,0.0,0.0,75,0.00,,,0.00,0.0,meteohub,2013-04-14 03:57:00,